Perryton, TX

5:38 AM CDT on October 20, 2017 (GMT -0500)
Perryton Ochiltree County

Weather History for KPYX - October, 2013

Change the Weather History Date:

Sunday, October 6, 2013

  Actual Average Record
Temperature  
Mean Temperature 55 °F -  
Max Temperature 74 °F 76 °F 92 °F (1979)
Min Temperature 36 °F 45 °F 33 °F (1985)
Degree Days  
Heating Degree Days 10    
Growing Degree Days 5 (Base 50)    
Moisture  
Dew Point 28 °F    
Average Humidity 43    
Maximum Humidity 66    
Minimum Humidity 17    
Precipitation  
Precipitation 0.00 in - - ()
Sea Level Pressure  
Sea Level Pressure 30.16 in    
Wind  
Wind Speed 9 mph (NW)    
Max Wind Speed 25 mph    
Max Gust Speed 33 mph    
Visibility 10 miles    
Events      
Averages and records for this station are not official NWS values.
T = Trace of Precipitation, MM = Missing Value Source: NWS Daily Summary

Daily Weather History Graph

Daily Weather History Graph

Search for Another Location

Airport or City:

Trip Planner

Search our weather history database for the weather conditions in past years. The results will help you decide how hot, cold, wet, or windy it might be!

Date:

Astronomy

Oct. 06, 2013 Rise Set
Actual Time 7:42 AM CDT 7:18 PM CDT
Civil Twilight 7:16 AM CDT 7:44 PM CDT
Nautical Twilight 6:46 AM CDT 8:14 PM CDT
Astronomical Twilight 6:17 AM CDT 8:44 PM CDT
Moon 9:25 AM CDT (10/6) 8:23 PM CDT (10/6)
Length of Visible Light 12h 27m
Length of Day
11h 36m
Waxing Crescent, 3% of the Moon is Illuminated
Oct 6
Waxing Crescent
Oct 11
First Quarter
Oct 18
Full
Oct 26
Last Quarter
Nov 3
New

Hourly Weather History & Observations

Time (CDT) Temp. Windchill Dew Point Humidity Pressure Visibility Wind Dir Wind Speed Gust Speed Precip Events Conditions
12:15 AM 41.9 °F 38.2 °F 27.1 °F 56% 30.17 in 10.0 mi NNW 5.8 mph - N/A   Clear
12:35 AM 41.2 °F 37.3 °F 27.1 °F 57% 30.17 in 10.0 mi NW 5.8 mph - N/A   Clear
12:55 AM 40.1 °F 36.1 °F 27.0 °F 59% 30.17 in 10.0 mi NW 5.8 mph - N/A   Clear
1:15 AM 39.4 °F 35.2 °F 27.1 °F 62% 30.18 in 10.0 mi NNW 5.8 mph - N/A   Clear
1:35 AM 41.0 °F 39.0 °F 26.1 °F 55% 30.18 in 10.0 mi NNW 3.5 mph - N/A   Clear
1:55 AM 41.2 °F 36.0 °F 25.3 °F 53% 30.19 in 10.0 mi North 8.1 mph - N/A   Clear
2:15 AM 40.5 °F 36.5 °F 25.0 °F 54% 30.19 in 10.0 mi NNW 5.8 mph - N/A   Clear
2:35 AM 38.3 °F 33.2 °F 25.9 °F 61% 30.19 in 10.0 mi NW 6.9 mph - N/A   Clear
2:55 AM 37.8 °F 33.3 °F 25.9 °F 62% 30.19 in 10.0 mi NW 5.8 mph - N/A   Clear
3:15 AM 36.7 °F 32.0 °F 26.4 °F 66% 30.18 in 10.0 mi WNW 5.8 mph - N/A   Clear
3:35 AM 38.3 °F 32.5 °F 26.4 °F 62% 30.18 in 10.0 mi WNW 8.1 mph - N/A   Clear
3:55 AM 37.8 °F 31.3 °F 26.2 °F 63% 30.18 in 10.0 mi WNW 9.2 mph - N/A   Clear
4:15 AM 39.0 °F 32.3 °F 25.2 °F 58% 30.18 in 10.0 mi WNW 10.4 mph - N/A   Clear
4:35 AM 39.2 °F 33.0 °F 24.6 °F 56% 30.17 in 10.0 mi WNW 9.2 mph - N/A   Clear
4:55 AM 39.7 °F 33.7 °F 23.9 °F 53% 30.18 in 10.0 mi WNW 9.2 mph - N/A   Clear
5:15 AM 38.7 °F 32.4 °F 24.6 °F 57% 30.17 in 10.0 mi West 9.2 mph - N/A   Clear
5:35 AM 37.9 °F 30.9 °F 24.6 °F 59% 30.18 in 10.0 mi West 10.4 mph - N/A   Clear
5:55 AM 37.9 °F 30.5 °F 23.9 °F 57% 30.18 in 10.0 mi West 11.5 mph - N/A   Clear
6:15 AM 37.6 °F 31.0 °F 23.7 °F 57% 30.19 in 10.0 mi West 9.2 mph - N/A   Clear
6:35 AM 36.7 °F 32.0 °F 24.3 °F 61% 30.19 in 10.0 mi WNW 5.8 mph - N/A   Clear
6:55 AM 36.1 °F 30.6 °F 24.8 °F 63% 30.19 in 10.0 mi WNW 6.9 mph - N/A   Clear
7:15 AM 38.7 °F 31.8 °F 24.1 °F 56% 30.19 in 10.0 mi WNW 10.4 mph - N/A   Clear
7:35 AM 40.8 °F 34.5 °F 23.4 °F 50% 30.19 in 10.0 mi WNW 10.4 mph - N/A   Clear
7:55 AM 40.1 °F 34.7 °F 23.9 °F 52% 30.19 in 10.0 mi WNW 8.1 mph - N/A   Clear
8:15 AM 41.5 °F 35.9 °F 23.9 °F 50% 30.19 in 10.0 mi WNW 9.2 mph - N/A   Clear
10:15 AM 57.2 °F - 25.0 °F 29% 30.21 in 10.0 mi NW 19.6 mph 23.0 mph N/A   Clear
10:55 AM 61.9 °F - 25.7 °F 25% 30.21 in 10.0 mi NNW 23.0 mph 33.4 mph N/A   Clear
1:55 PM 71.6 °F - 23.9 °F 17% 30.16 in 10.0 mi NW 25.3 mph 28.8 mph N/A   Clear
2:15 PM 71.8 °F - 24.3 °F 17% 30.15 in 10.0 mi NW 18.4 mph 31.1 mph N/A   Clear
2:35 PM 72.5 °F - 25.3 °F 17% 30.14 in 10.0 mi NW 23.0 mph 29.9 mph N/A   Clear
2:55 PM 73.4 °F - 26.1 °F 17% 30.14 in 10.0 mi NW 19.6 mph 28.8 mph N/A   Clear
3:15 PM 73.8 °F - 26.8 °F 17% 30.13 in 10.0 mi NW 20.7 mph 28.8 mph N/A   Clear
3:35 PM 73.6 °F - 27.0 °F 18% 30.12 in 10.0 mi NW 17.3 mph 31.1 mph N/A   Clear
3:55 PM 74.3 °F - 28.0 °F 18% 30.12 in 10.0 mi NW 20.7 mph 26.5 mph N/A   Clear
4:15 PM 73.8 °F - 28.4 °F 19% 30.12 in 10.0 mi NW 13.8 mph 19.6 mph N/A   Clear
4:35 PM 73.9 °F - 29.1 °F 19% 30.12 in 10.0 mi NW 15.0 mph 24.2 mph N/A   Clear
4:55 PM 74.3 °F - 29.5 °F 19% 30.11 in 10.0 mi NNW 20.7 mph 26.5 mph N/A   Clear
5:15 PM 74.3 °F - 29.8 °F 19% 30.11 in 10.0 mi NNW 20.7 mph - N/A   Clear
5:35 PM 74.1 °F - 30.2 °F 20% 30.11 in 10.0 mi NW 19.6 mph 25.3 mph N/A   Clear
5:55 PM 73.8 °F - 30.4 °F 20% 30.11 in 10.0 mi NNW 12.7 mph - N/A   Clear
6:15 PM 73.4 °F - 30.6 °F 21% 30.11 in 10.0 mi NW 16.1 mph - N/A   Clear
6:35 PM 72.5 °F - 30.9 °F 22% 30.12 in 10.0 mi NNW 13.8 mph - N/A   Clear
6:55 PM 71.2 °F - 31.5 °F 23% 30.12 in 10.0 mi North 11.5 mph - N/A   Clear
7:15 PM 67.8 °F - 32.0 °F 26% 30.12 in 10.0 mi North 9.2 mph - N/A   Clear
7:35 PM 63.9 °F - 32.0 °F 30% 30.13 in 10.0 mi North 6.9 mph - N/A   Clear
8:55 PM 57.4 °F - 33.4 °F 40% 30.15 in 10.0 mi NNW 4.6 mph - N/A   Clear
9:15 PM 55.8 °F - 33.8 °F 44% 30.15 in 10.0 mi NNW 5.8 mph - N/A   Clear
9:35 PM 53.8 °F - 34.5 °F 48% 30.15 in 10.0 mi NNW 6.9 mph - N/A   Clear
9:55 PM 52.7 °F - 35.1 °F 51% 30.16 in 10.0 mi NNW 4.6 mph - N/A   Clear
10:15 PM 53.1 °F - 34.9 °F 50% 30.17 in 10.0 mi NW 4.6 mph - N/A   Clear
10:35 PM 54.1 °F - 34.7 °F 48% 30.17 in 10.0 mi NNW 6.9 mph - N/A   Clear
10:55 PM 52.0 °F - 34.7 °F 52% 30.17 in 10.0 mi NNW 6.9 mph - N/A   Clear
11:15 PM 50.0 °F - 35.1 °F 57% 30.17 in 10.0 mi WNW 4.6 mph - N/A   Clear
11:35 PM 50.9 °F - 35.2 °F 55% 30.18 in 10.0 mi WNW 5.8 mph - N/A   Clear
11:55 PM 52.9 °F - 34.9 °F 50% 30.18 in 10.0 mi NW 5.8 mph - N/A   Clear